Location: Fort Worth, Tx
(32.7431°N, 97.3695°W)
Time: 03:57:48
(UTC-04:00)

Altair - All Passes

Search period start: 03 October 2023 00:00
Search period end: 13 October 2023 00:00
Orbit: 1501 x 1682 km, 47.2° (Epoch: 02 October)

Date Brightness Start Highest point End Pass type
(mag) Time Alt. Az. Time Alt. Az. Time Alt. Az.
03 Oct - 01:25:23 10° S 01:33:19 31° SE 01:41:29 10° ENE night (unlit)
03 Oct - 03:27:49 10° WSW 03:37:23 79° NW 03:47:23 10° NE visible
03 Oct - 05:34:31 10° W 05:43:28 39° NNW 05:52:43 10° NE visible
03 Oct - 07:41:38 10° NW 07:50:46 38° NNE 08:00:03 10° ENE visible
03 Oct - 09:46:54 10° NW 09:57:04 75° NE 10:07:13 10° ESE daylight
03 Oct - 11:52:31 10° WNW 12:01:27 37° SW 12:10:19 10° S daylight
04 Oct - 01:00:39 10° S 01:08:13 28° SE 01:16:00 10° ENE night (unlit)
04 Oct - 03:02:37 10° SW 03:12:09 85° NW 03:22:08 10° NE visible
04 Oct - 05:09:06 10° W 05:18:06 40° NNW 05:27:24 10° NE visible
04 Oct - 07:16:19 10° NW 07:25:22 37° N 07:34:34 10° ENE visible
04 Oct - 09:21:41 10° NW 09:31:47 70° NNE 09:41:55 10° ESE daylight
04 Oct - 11:27:07 10° WNW 11:36:18 41° SW 11:45:25 10° SSE daylight
05 Oct - 00:35:59 10° S 00:43:08 25° SE 00:50:28 10° ENE night (unlit)
05 Oct - 02:37:26 10° SW 02:46:56 90° SE 02:56:52 10° NE visible
05 Oct - 04:43:42 10° W 04:52:43 41° NNW 05:02:04 10° NE visible
05 Oct - 06:50:59 10° NW 06:59:57 36° N 07:09:06 10° ENE visible
05 Oct - 08:56:27 10° NW 09:06:29 66° NNE 09:16:35 10° ESE daylight
05 Oct - 11:01:45 10° WNW 11:11:08 45° SW 11:20:29 10° SSE daylight
06 Oct - 00:11:23 10° S 00:18:03 22° SE 00:24:51 10° ENE night (unlit)
06 Oct - 02:12:17 10° SW 02:21:44 84° SE 02:31:36 10° NE visible
06 Oct - 04:18:19 10° W 04:27:21 43° NNW 04:36:45 10° NE visible
06 Oct - 06:25:39 10° WNW 06:34:32 36° N 06:43:37 10° ENE visible
06 Oct - 08:31:13 10° NW 08:41:11 62° NNE 08:51:14 10° ESE daylight
06 Oct - 10:36:24 10° WNW 10:45:58 49° SW 10:55:31 10° SSE daylight
06 Oct - 23:46:53 10° SSE 23:52:58 19° ESE 23:59:10 10° E night (unlit)
07 Oct - 01:47:09 10° SW 01:56:32 78° SE 02:06:20 10° NE visible
07 Oct - 03:52:55 10° W 04:02:00 45° NNW 04:11:27 10° NE visible
07 Oct - 06:00:19 10° WNW 06:09:07 35° N 06:18:08 10° ENE visible
07 Oct - 08:06:00 10° NW 08:15:52 58° NNE 08:25:52 10° ESE visible
07 Oct - 10:11:05 10° WNW 10:20:47 54° SW 10:30:30 10° SSE daylight
07 Oct - 12:22:50 10° WSW 12:24:08 10° WSW 12:25:27 10° SW daylight
07 Oct - 23:22:31 10° SSE 23:27:54 17° ESE 23:33:22 10° E night (unlit)
08 Oct - 01:22:03 10° SW 01:31:21 72° SE 01:41:04 10° NE night (unlit)
08 Oct - 03:27:33 10° W 03:36:40 47° NNW 03:46:09 10° NE visible
08 Oct - 05:34:58 10° WNW 05:43:43 35° N 05:52:41 10° ENE visible
08 Oct - 07:40:46 10° NW 07:50:33 55° NNE 08:00:28 10° ESE visible
08 Oct - 09:45:47 10° WNW 09:55:36 59° SW 10:05:27 10° SSE daylight
08 Oct - 11:55:25 10° W 11:59:03 12° WSW 12:02:41 10° SW daylight
08 Oct - 22:58:20 10° SSE 23:02:50 14° ESE 23:07:24 10° E night (unlit)
09 Oct - 00:56:59 10° SW 01:06:12 66° SE 01:15:47 10° ENE night (unlit)
09 Oct - 03:02:11 10° W 03:11:20 49° NNW 03:20:52 10° NE visible
09 Oct - 05:09:36 10° WNW 05:18:18 34° N 05:27:14 10° ENE visible
09 Oct - 07:15:32 10° NW 07:25:13 52° NNE 07:35:04 10° E visible
09 Oct - 09:20:30 10° WNW 09:30:24 64° SW 09:40:22 10° SSE daylight
09 Oct - 11:29:05 10° W 11:33:57 15° WSW 11:38:49 10° SSW daylight
09 Oct - 22:34:29 10° SE 22:37:47 12° ESE 22:41:05 10° E night (unlit)
10 Oct - 00:31:56 10° SSW 00:41:02 61° SE 00:50:30 10° ENE night (unlit)
10 Oct - 02:36:51 10° W 02:46:01 52° NNW 02:55:36 10° NE visible
10 Oct - 04:44:14 10° WNW 04:52:53 34° N 05:01:47 10° ENE visible
10 Oct - 06:50:18 10° NW 06:59:53 49° NNE 07:09:38 10° E visible
10 Oct - 08:55:14 10° WNW 09:05:12 69° SW 09:15:15 10° SE daylight
10 Oct - 11:03:04 10° W 11:08:51 17° WSW 11:14:38 10° SSW daylight
10 Oct - 22:11:59 10° SE 22:12:43 10° ESE 22:13:27 10° ESE visible
11 Oct - 00:06:55 10° SSW 00:15:53 56° SE 00:25:11 10° ENE night (unlit)
11 Oct - 02:11:31 10° WSW 02:20:43 55° NNW 02:30:20 10° NE visible
11 Oct - 04:18:51 10° WNW 04:27:28 34° N 04:36:22 10° ENE visible
11 Oct - 06:25:04 10° NW 06:34:32 47° NNE 06:44:12 10° E visible
11 Oct - 08:29:58 10° NW 08:39:59 75° SW 08:50:06 10° SE daylight
11 Oct - 10:37:14 10° W 10:43:44 19° WSW 10:50:15 10° SSW daylight
11 Oct - 23:41:57 10° SSW 23:50:45 50° SE 23:59:52 10° ENE visible
12 Oct - 01:46:13 10° WSW 01:55:26 58° NNW 02:05:03 10° NE visible
12 Oct - 03:53:29 10° WNW 04:02:04 35° N 04:10:56 10° ENE visible
12 Oct - 05:59:49 10° NW 06:09:11 45° NNE 06:18:44 10° E visible
12 Oct - 08:04:44 10° NW 08:14:46 80° SW 08:24:56 10° SE visible
12 Oct - 10:11:33 10° W 10:18:37 22° SW 10:25:44 10° S daylight
12 Oct - 23:17:00 10° SSW 23:25:38 46° SE 23:34:33 10° ENE visible
